Satellite: RS-30
Catalog number: 32953
Epoch time:      11062.54592523
Element set:     519
Inclination:      082.4978 deg
RA of node:       228.3898 deg
Eccentricity:    0.0018127
Arg of perigee:   256.2140 deg
Mean anomaly:     103.6926 deg
Mean motion:   12.43010621 rev/day
Decay rate:        1.0e-07 rev/day^2
Epoch rev:           12596
Checksum:              284

Satellite: TACSAT-3
Catalog number: 35001
Epoch time:      11062.52820236
Element set:     519
Inclination:      040.4537 deg
RA of node:       092.6982 deg
Eccentricity:    0.0021485
Arg of perigee:   146.8256 deg
Mean anomaly:     213.3913 deg
Mean motion:   15.45163629 rev/day
Decay rate:      9.896e-05 rev/day^2
Epoch rev:           10071
Checksum:              290

Satellite: PHARMSAT
Catalog number: 35002
Epoch time:      11062.22737216
Element set:     483
Inclination:      040.4689 deg
RA of node:       091.9906 deg
Eccentricity:    0.0024246
Arg of perigee:   150.2562 deg
Mean anomaly:     209.9638 deg
Mean motion:   15.45316424 rev/day
Decay rate:      7.678e-05 rev/day^2
Epoch rev:           10069
Checksum:              293

Satellite: HAWKSAT1
Catalog number: 35003
Epoch time:      11062.41356087
Element set:     531
Inclination:      040.4549 deg
RA of node:       073.8505 deg
Eccentricity:    0.0021103
Arg of perigee:   174.8135 deg
Mean anomaly:     185.2893 deg
Mean motion:   15.52976477 rev/day
Decay rate:     2.9740e-04 rev/day^2
Epoch rev:           10091
Checksum:              284

Satellite: CP6
Catalog number: 35004
Epoch time:      11062.41053885
Element set:     535
Inclination:      040.4539 deg
RA of node:       069.3068 deg
Eccentricity:    0.0021892
Arg of perigee:   183.5147 deg
Mean anomaly:     176.5509 deg
Mean motion:   15.55522831 rev/day
Decay rate:     3.8411e-04 rev/day^2
Epoch rev:           10095
Checksum:              292

Satellite: AEROCUB3
Catalog number: 35005
Epoch time:      11006.09222617
Element set:     610
Inclination:      040.4461 deg
RA of node:       021.7975 deg
Eccentricity:    0.0025578
Arg of perigee:   084.1677 deg
Mean anomaly:     280.7191 deg
Mean motion:   16.39196088 rev/day
Decay rate:  1.4049365e-01 rev/day^2
Epoch rev:            9254
Checksum:              305

Satellite: METEOR-M
Catalog number: 35865
Epoch time:      11062.73501566
Element set:     153
Inclination:      098.7212 deg
RA of node:       119.1671 deg
Eccentricity:    0.0002649
Arg of perigee:   356.0011 deg
Mean anomaly:     004.1100 deg
Mean motion:   14.21834763 rev/day
Decay rate:       1.76e-06 rev/day^2
Epoch rev:            7560
Checksum:              258

Satellite: RS-38
Catalog number: 35869
Epoch time:      11062.74775155
Element set:     162
Inclination:      098.7183 deg
RA of node:       119.2199 deg
Eccentricity:    0.0004607
Arg of perigee:   345.1749 deg
Mean anomaly:     014.9255 deg
Mean motion:   14.22001342 rev/day
Decay rate:       1.77e-06 rev/day^2
Epoch rev:            7561
Checksum:              309

/EX


_______________________________________________
Via the Keps mailing list courtesy of AMSAT-NA
http://amsat.org/mailman/listinfo/keps

--- ViaMAIL!/WC v1.60d
 * Origin: Chowdanet (401-724-4410) telnet://chowdanet.com  (1:323/120)